Weather History for Teterboro, NJ

Change the Weather History Date:

Thursday, October 30, 2014

  Actual Average Record
Temperature  
Mean Temperature 50 °F -  
Max Temperature 60 °F 58 °F 69 °F (2005)
Min Temperature 42 °F 40 °F 33 °F (2011)
Degree Days  
Heating Degree Days 16    
Moisture  
Dew Point 38 °F    
Average Humidity 67    
Maximum Humidity 93    
Minimum Humidity 41    
Precipitation  
Precipitation 0.00 in - - ()
Sea Level Pressure  
Sea Level Pressure 29.98 in    
Wind  
Wind Speed 3 mph (NW)    
Max Wind Speed 14 mph    
Max Gust Speed -    
Visibility 10 miles    
Events Fog    
Averages and records for this station are not official NWS values.
T = Trace of Precipitation, MM = Missing Value Source: NWS Daily Summary

Daily Weather History Graph

Daily Weather History Graph

Search for Another Location

Airport:

Trip Planner

Search our weather history database for the weather conditions in past years. The results will help you decide how hot, cold, wet, or windy it might be!

Date:

Astronomy

Oct. 30, 2014 Rise Set
Actual Time 7:24 AM EDT 5:54 PM EDT
Civil Twilight 6:56 AM EDT 6:23 PM EDT
Nautical Twilight 6:23 AM EDT 6:55 PM EDT
Astronomical Twilight 5:51 AM EDT 7:27 PM EDT
Moon 1:26 PM EDT No Moon Set
Length of Visible Light 11h 27m
Length of Day
10h 30m
Waxing Crescent, 45% of the Moon is Illuminated
Oct 30
Waxing Crescent
Oct 30
First Quarter
Nov 6
Full
Nov 14
Last Quarter
Nov 22
New

Hourly Weather History & Observations

Time (EDT) Temp. Windchill Dew Point Humidity Pressure Visibility Wind Dir Wind Speed Gust Speed Precip Events Conditions
12:51 AM 48.0 °F - 45.0 °F 89% 29.94 in 10.0 mi Calm Calm - N/A Fog Shallow Fog
1:51 AM 46.0 °F - 44.1 °F 93% 29.94 in 10.0 mi Calm Calm - N/A Fog Shallow Fog
2:51 AM 43.0 °F - 41.0 °F 93% 29.94 in 10.0 mi Calm Calm - N/A Fog Shallow Fog
3:51 AM 42.1 °F - 39.9 °F 92% 29.94 in 10.0 mi Calm Calm - N/A Fog Shallow Fog
4:11 AM 42.8 °F - 39.2 °F 87% 29.94 in 10.0 mi Calm Calm - N/A Fog Shallow Fog
4:51 AM 45.0 °F - 43.0 °F 93% 29.94 in 10.0 mi Calm Calm - N/A Fog Shallow Fog
5:51 AM 45.0 °F - 42.1 °F 90% 29.95 in 10.0 mi Calm Calm - N/A Fog Shallow Fog
6:51 AM 44.1 °F 42.5 °F 42.1 °F 93% 29.97 in 10.0 mi North 3.5 mph - N/A Fog Shallow Fog
7:51 AM 45.0 °F - 42.1 °F 90% 29.98 in 10.0 mi Calm Calm - N/A Fog Shallow Fog
8:51 AM 48.0 °F - 42.1 °F 80% 30.00 in 10.0 mi Calm Calm - N/A Fog Shallow Fog
9:51 AM 53.1 °F - 42.1 °F 66% 29.99 in 10.0 mi NNW 4.6 mph - N/A   Clear
10:51 AM 55.9 °F - 39.9 °F 55% 30.00 in 10.0 mi NW 8.1 mph - N/A   Clear
11:51 AM 57.0 °F - 37.9 °F 49% 29.99 in 10.0 mi NNW 8.1 mph - N/A   Clear
12:51 PM 55.9 °F - 37.0 °F 49% 29.99 in 10.0 mi NNW 11.5 mph - N/A   Partly Cloudy
1:51 PM 57.9 °F - 37.0 °F 46% 29.96 in 10.0 mi Variable 5.8 mph - N/A   Partly Cloudy
2:51 PM 57.9 °F - 34.0 °F 41% 29.96 in 10.0 mi North 11.5 mph - N/A   Mostly Cloudy
3:51 PM 57.9 °F - 34.0 °F 41% 29.97 in 10.0 mi NW 9.2 mph - N/A   Clear
4:51 PM 55.9 °F - 34.0 °F 44% 29.98 in 10.0 mi WNW 13.8 mph - N/A   Clear
5:51 PM 53.1 °F - 33.1 °F 47% 29.99 in 10.0 mi NW 10.4 mph - N/A   Clear
6:51 PM 51.1 °F - 33.1 °F 50% 30.01 in 10.0 mi NW 5.8 mph - N/A   Clear
7:51 PM 48.9 °F - 34.0 °F 56% 30.01 in 10.0 mi NW 5.8 mph - N/A   Clear
8:51 PM 48.0 °F - 33.1 °F 56% 30.01 in 10.0 mi NNW 5.8 mph - N/A   Clear
9:51 PM 46.9 °F - 33.1 °F 59% 30.02 in 10.0 mi NNW 4.6 mph - N/A   Clear
10:51 PM 46.0 °F 44.8 °F 33.1 °F 61% 30.02 in 10.0 mi NNW 3.5 mph - N/A   Clear
11:51 PM 45.0 °F 43.5 °F 34.0 °F 65% 30.02 in 10.0 mi NNW 3.5 mph - N/A   Clear